Springfield, MO

5:21 AM CST on December 10, 2019 (GMT -0600)
Springfield-Branson Regional

Weather History for KSGF - October, 2019

Change the Weather History Date:

Wednesday, October 9, 2019

  Actual Average Record
Temperature  
Mean Temperature 59 °F 60 °F  
Max Temperature 73 °F 71 °F 92 °F (1980)
Min Temperature 45 °F 49 °F 24 °F (2000)
Degree Days  
Heating Degree Days 6 6  
Month to date heating degree days 25 49  
Since 1 July heating degree days 25 104  
Cooling Degree Days 0 1  
Month to date cooling degree days 37 15  
Year to date cooling degree days 1687 1374  
Growing Degree Days 9 (Base 50)    
Moisture  
Dew Point 48 °F    
Average Humidity 65    
Maximum Humidity 86    
Minimum Humidity 44    
Precipitation  
Precipitation T in 0.10 in 1.81 in (2014)
Month to date precipitation 1.10 1.08  
Year to date precipitation 42.79 35.80  
Snow  
Snow 0.00 in - - ()
Month to date snowfall 0.0  
Since 1 July snowfall 0.0  
Since 1 September snowfall 0.0  
Snow Depth 0.00 in    
Sea Level Pressure  
Sea Level Pressure 29.97 in    
Wind  
Wind Speed 12 mph (SSE)    
Max Wind Speed 23 mph    
Max Gust Speed 31 mph    
Visibility 10 miles    
Events Rain    
T = Trace of Precipitation, MM = Missing Value Source: NWS Daily Summary

Daily Weather History Graph

Daily Weather History Graph

Search for Another Location

Airport or City:

Astronomy

Oct. 09, 2019 Rise Set
Actual Time 7:15 AM CDT 6:45 PM CDT
Civil Twilight 6:49 AM CDT 7:11 PM CDT
Nautical Twilight 6:19 AM CDT 7:41 PM CDT
Astronomical Twilight 5:49 AM CDT 8:11 PM CDT
Moon 5:10 PM CDT (10/9) 3:10 AM CDT (10/9)
Length of Visible Light 12h 21m
Length of Day
11h 29m
Waxing Gibbous, 85% of the Moon is Illuminated
Oct 9
Waxing Gibbous
Oct 13
Full
Oct 21
Last Quarter
Oct 27
New
Nov 4
First Quarter

Hourly Weather History & Observations

Time (CDT) Temp. Dew Point Humidity Pressure Visibility Wind Dir Wind Speed Gust Speed Precip Events Conditions
12:52 AM 55.9 °F 44.1 °F 64% 30.03 in 10.0 mi South 8.1 mph - N/A   Clear
1:52 AM 53.1 °F 43.0 °F 69% 30.03 in 10.0 mi SSE 8.1 mph - N/A   Clear
2:52 AM 52.0 °F 44.1 °F 74% 30.02 in 10.0 mi South 8.1 mph - N/A   Clear
3:52 AM 50.0 °F 43.0 °F 77% 30.02 in 10.0 mi South 5.8 mph - N/A   Clear
4:52 AM 46.9 °F 42.1 °F 83% 30.01 in 10.0 mi SSE 5.8 mph - N/A   Clear
5:52 AM 46.9 °F 41.0 °F 80% 30.02 in 10.0 mi South 4.6 mph - N/A   Clear
6:52 AM 48.0 °F 42.1 °F 80% 30.02 in 10.0 mi SSE 8.1 mph - N/A   Clear
7:52 AM 48.9 °F 43.0 °F 80% 30.03 in 10.0 mi South 5.8 mph - N/A   Clear
8:52 AM 55.0 °F 45.0 °F 69% 30.05 in 10.0 mi SSE 10.4 mph - N/A   Clear
9:52 AM 60.1 °F 46.0 °F 60% 30.04 in 10.0 mi SSE 12.7 mph 23.0 mph N/A   Clear
10:52 AM 66.0 °F 48.0 °F 52% 30.04 in 10.0 mi SSE 11.5 mph - N/A   Clear
11:52 AM 66.9 °F 48.0 °F 51% 30.00 in 10.0 mi South 15.0 mph - N/A   Clear
12:52 PM 71.1 °F 48.9 °F 45% 29.99 in 10.0 mi SSE 9.2 mph 19.6 mph N/A   Clear
1:52 PM 71.1 °F 48.9 °F 45% 29.96 in 10.0 mi SSE 11.5 mph - N/A   Clear
2:52 PM 69.1 °F 51.1 °F 53% 29.96 in 10.0 mi South 8.1 mph - N/A   Clear
3:52 PM 68.0 °F 52.0 °F 56% 29.95 in 10.0 mi SSE 8.1 mph - N/A   Mostly Cloudy
4:52 PM 68.0 °F 53.1 °F 59% 29.92 in 10.0 mi SE 9.2 mph - N/A   Clear
5:52 PM 68.0 °F 55.0 °F 63% 29.88 in 10.0 mi SE 12.7 mph - N/A   Scattered Clouds
6:52 PM 66.9 °F 55.0 °F 66% 29.86 in 10.0 mi SE 15.0 mph - N/A   Clear
7:52 PM 66.9 °F 54.0 °F 63% 29.88 in 10.0 mi SSE 18.4 mph - N/A   Clear
9:52 PM 66.9 °F 54.0 °F 63% 29.89 in 10.0 mi SSE 18.4 mph 26.5 mph N/A   Clear
10:52 PM 66.0 °F 55.0 °F 68% 29.88 in 10.0 mi SSE 17.3 mph 25.3 mph 0.00 in Rain Light Rain
11:52 PM 64.9 °F 55.0 °F 70% 29.89 in 10.0 mi SSE 20.7 mph 31.1 mph 0.00 in   Clear